Regional Weather Roundup
Issued by NWS Little Rock, AR

Home | Current Version | Previous Version | Graphics & Text | Print | Product List | Glossary On
Versions: 1 2 3 4 5 6 7 8 9 10 11 12 13 14 15 16 17 18 19 20 21 22 23 24 25 26 27 28 29 30 31
000
ASUS44 KLZK 241405
RWRLZK

WEATHER ROUNDUP FOR ARKANSAS
NATIONAL WEATHER SERVICE LITTLE ROCK AR
900 AM CDT MON APR 24 2017

NOTE: "FAIR" INDICATES FEW OR NO CLOUDS BELOW 12,000 FEET WITH NO
SIGNIFICANT WEATHER AND/OR OBSTRUCTIONS TO VISIBILITY.

ARZ001-003-010-029-241500-
NORTHWEST ARKANSAS

CITY           SKY/WX    TMP DP  RH WIND       PRES   REMARKS
FAYETTEVILLE   SUNNY     48  44  86 CALM      30.00S
FORT SMITH     SUNNY     55  45  68 CALM      30.00S
HARRISON       SUNNY     57  45  64 CALM      29.99F
BENTONVILLE    SUNNY     54  43  66 S3        30.00R
ROGERS         SUNNY     53  44  71 SE5       30.00R
SILOAM SPGS    SUNNY     54  43  66 SE5       29.99S
HIGHFILL       SUNNY     53  44  71 SE5       29.99R
SPRINGDALE     SUNNY     52  43  71 CALM      30.01S
$$

ARZ004-005-016-241500-
NORTH CENTRAL ARKANSAS

CITY           SKY/WX    TMP DP  RH WIND       PRES   REMARKS
BATESVILLE     SUNNY    N/A N/A N/A NW6       29.98S
FLIPPIN        SUNNY     50  39  66 CALM      29.98S
MTN HOME       SUNNY     50  46  86 VRB3      29.98S
$$

ARZ040-041-241500-
WEST CENTRAL ARKANSAS

CITY           SKY/WX    TMP DP  RH WIND       PRES   REMARKS
MENA           SUNNY     55  48  76 CALM      30.01S
$$

ARZ009-017-025-026-028-241500-
NORTHEAST ARKANSAS

CITY           SKY/WX    TMP DP  RH WIND       PRES   REMARKS
JONESBORO      SUNNY     61  42  49 VRB6      29.94R
NEWPORT        SUNNY     57  44  62 NW7       29.97R
WALNUT RIDGE   SUNNY     57  41  54 NW8       29.95S
BLYTHEVILLE    SUNNY     59  48  67 N9        29.92S
NW BLYTHEVILLE SUNNY     57  45  62 N8        29.92S
$$

ARZ022-023-033-042-044-241500-
CENTRAL ARKANSAS

CITY           SKY/WX    TMP DP  RH WIND       PRES   REMARKS
LITTLE ROCK    SUNNY     59  46  62 NW8       29.98S
N LITTLE ROCK    N/A     58  45  62 NW7       29.98S
JACKSONVILLE   SUNNY     58  46  63 W6        29.97S
CONWAY           N/A     55  48  76 VRB3      29.98S
SEARCY         SUNNY     60  43  53 N6        29.98S
HOT SPRINGS    SUNNY     56  50  80 W5        29.99S
RUSSELLVILLE   SUNNY     54  47  77 CALM      29.99S
$$

ARZ036-241500-
EAST ARKANSAS

CITY           SKY/WX    TMP DP  RH WIND       PRES   REMARKS
WEST MEMPHIS   SUNNY     57  45  64 N10       29.91S
$$

ARZ050-053-066-070-073-241500-
SOUTHWEST ARKANSAS

CITY           SKY/WX    TMP DP  RH WIND       PRES   REMARKS
ARKADELPHIA    FAIR      58  54  86 CALM      29.99S
CAMDEN         SUNNY     55  48  76 CALM      29.98S
TEXARKANA      SUNNY     58  47  66 NE3       29.99S
EL DORADO      SUNNY     60  49  66 NW5       29.98S
DE QUEEN       SUNNY     56  51  84 CALM      29.98R
$$

ARZ056-057-069-241500-
SOUTHEAST ARKANSAS

CITY           SKY/WX    TMP DP  RH WIND       PRES   REMARKS
PINE BLUFF     SUNNY     59  46  62 NW10      29.97S
STUTTGART      SUNNY     57  39  51 NW10      29.98R
MONTICELLO     SUNNY     61  46  57 W9        29.96S

$$






USA.gov is the U.S. government's official web portal to all federal, state and local government web resources and services.